Temperature
20 20 21 21 17 14 15 15 13 12 12 11 11 12 11 10 10 10 9 8 8 8 8 8 7 7 7 7 7 6 6 6 6 5 5 5 4 4 4 4 4 4 4 4 4 4 4 4 4
20 20 21 20 15 16 16 14 12 12 12 11 11 11 10 9 10 10 9 8 8 8 8 8 7 7 7 7 6 6 6 5 5 5 4 4 4 4 4 3 3 3 3 3 3 3 3 3 3
20 21 20 15 15 16 17 14 12 11 11 11 10 10 10 10 10 10 9 8 8 8 8 8 7 7 7 7 6 6 6 5 5 4 4 4 4 3 3 3 3 3 3 3 3 3 3 3 3
20 20 19 15 17 15 14 13 11 10 10 11 11 9 10 10 10 10 9 8 8 8 8 8 7 7 7 7 6 6 5 5 5 4 4 4 4 3 3 3 2 2 2 2 2 3 3 3 3
20 20 15 15 15 14 12 12 11 10 10 10 10 9 9 10 10 9 9 8 8 8 8 8 7 7 7 7 6 6 5 5 5 5 5 4 4 3 3 3 2 2 2 2 2 2 3 3 3
21 17 15 16 16 14 12 12 12 11 10 10 10 10 10 10 10 9 8 8 8 8 8 8 7 7 7 7 6 6 6 5 5 5 5 5 4 4 4 3 3 3 2 2 2 3 3 3 3
20 14 16 16 14 13 13 12 12 11 10 11 12 11 10 10 9 8 8 8 7 7 7 7 7 7 7 7 6 6 6 6 5 5 5 5 4 4 4 3 3 3 3 3 3 3 3 3 3
20 13 14 13 13 14 13 13 13 13 12 13 12 11 12 12 10 8 7 7 7 7 7 7 7 7 7 7 7 6 6 6 5 5 5 4 4 4 4 3 3 3 3 3 3 3 3 2 2
19 14 15 14 12 14 13 12 13 13 13 12 12 12 12 12 10 9 8 7 7 7 7 7 7 7 7 7 6 6 6 5 5 5 4 4 4 3 3 3 3 3 3 2 2 2 2 1 1
18 15 16 14 13 13 12 12 12 11 10 11 12 12 12 12 11 10 10 9 8 8 7 7 7 7 7 7 6 6 6 5 5 4 4 4 4 3 3 3 3 2 2 2 1 1 1 0 -0
16 15 15 14 14 14 12 12 12 11 9 12 14 14 13 12 11 11 11 10 10 8 7 7 7 7 7 6 6 6 6 5 5 4 4 4 3 3 3 2 2 2 1 1 0 0 -0 -1 -1
14 13 13 13 13 13 13 12 11 11 14 15 15 14 13 13 12 12 12 11 10 8 8 7 7 7 6 6 6 6 5 5 5 4 4 3 3 3 2 2 1 1 1 0 -0 -1 -1 -2 -2
13 13 13 13 13 13 12 11 11 13 15 14 14 14 13 13 13 13 12 11 9 8 8 7 7 7 6 6 6 6 5 5 4 4 4 3 3 2 2 1 1 0 -0 -1 -1 -2 -2 -2 -3
12 12 12 13 13 13 12 12 11 14 15 14 14 13 14 14 14 13 12 11 10 9 8 7 7 6 6 6 6 5 5 5 4 4 3 3 2 2 1 1 0 -0 -1 -1 -2 -2 -3 -3 -3
13 12 12 12 12 12 12 11 10 15 14 14 14 14 13 13 13 13 13 12 11 10 9 7 7 6 6 6 5 5 5 4 4 4 3 2 2 1 1 0 -0 -1 -1 -2 -2 -3 -3 -3 -4
13 13 13 13 12 11 12 12 13 16 14 13 14 14 14 13 13 13 12 12 11 10 9 8 7 6 6 6 5 5 5 4 4 3 3 2 2 1 1 0 -1 -1 -2 -2 -3 -3 -3 -4 -4
13 13 14 13 11 10 10 11 11 14 13 13 14 14 14 14 13 13 13 12 11 10 9 8 7 7 6 5 5 5 4 4 4 3 3 2 2 1 0 -0 -1 -1 -2 -3 -3 -3 -4 -4 -4
15 14 13 13 12 9 8 9 11 12 11 12 14 14 14 14 15 15 13 12 11 10 9 8 7 7 6 5 5 4 4 4 4 3 3 2 1 1 0 -0 -1 -2 -2 -3 -3 -4 -4 -4 -5
15 14 12 12 12 9 9 10 12 13 10 9 10 12 13 15 16 14 13 12 11 10 9 8 7 7 6 5 5 5 5 4 4 3 3 2 1 1 0 -0 -1 -2 -2 -3 -4 -4 -4 -5 -5
13 13 12 11 11 10 8 10 12 11 10 10 10 11 14 15 16 15 14 13 12 11 10 9 8 7 7 6 5 5 4 4 3 3 2 2 1 1 0 -1 -1 -2 -3 -3 -4 -5 -5 -5 -6
13 13 12 12 12 11 9 11 11 11 10 10 11 12 13 15 16 16 15 14 13 12 12 11 10 8 7 6 5 4 4 4 3 3 3 2 1 1 -0 -1 -1 -2 -3 -3 -4 -5 -5 -6 -6
12 13 12 13 12 10 11 11 13 11 10 9 11 13 15 17 17 17 16 15 15 15 13 12 11 9 8 7 6 5 5 5 4 4 3 2 1 1 -0 -1 -1 -2 -3 -3 -4 -5 -6 -6 -6
13 13 13 12 11 10 9 10 12 10 12 12 12 15 18 19 18 18 18 17 16 15 14 13 11 10 9 8 7 6 5 5 4 3 3 2 1 1 -0 -1 -1 -2 -3 -4 -4 -5 -6 -6 -7
13 12 10 8 8 10 10 8 11 11 12 13 13 16 18 19 19 19 18 17 17 16 15 13 12 11 10 9 7 6 5 5 4 3 3 2 1 1 -0 -1 -2 -2 -3 -4 -4 -5 -6 -6 -7
13 12 11 12 11 11 10 9 11 12 11 11 12 16 17 18 19 19 19 18 18 17 16 15 14 13 11 10 8 7 6 5 4 4 3 2 1 1 0 -1 -1 -2 -3 -4 -4 -5 -6 -6 -7
12 12 12 12 11 10 10 9 12 12 12 13 13 15 18 19 19 19 19 18 18 17 16 16 15 14 12 11 10 8 7 5 4 4 3 2 2 1 -0 -1 -2 -2 -3 -4 -5 -5 -6 -6 -7
12 11 11 10 10 9 9 9 11 12 12 12 13 15 17 19 19 19 19 18 18 17 17 16 15 14 13 12 10 9 7 6 5 4 3 2 2 1 -0 -1 -2 -2 -3 -4 -5 -5 -6 -6 -7
12 10 8 10 10 10 10 10 12 14 15 13 12 14 17 18 19 19 19 18 18 17 16 16 15 14 13 12 11 9 8 6 5 4 3 2 2 1 -0 -1 -2 -2 -3 -4 -5 -5 -6 -6 -7
10 10 10 8 8 9 9 12 12 12 13 12 12 15 16 18 18 18 18 18 17 17 16 16 15 14 13 12 11 9 8 7 5 4 3 2 1 0 -0 -1 -2 -2 -3 -4 -4 -5 -6 -6 -7
10 10 9 10 10 7 7 11 13 11 11 11 12 16 17 18 18 18 17 17 17 17 16 16 15 14 14 12 11 9 8 6 5 4 3 2 1 0 -0 -1 -2 -2 -3 -4 -4 -5 -6 -6 -7
Wind_Speed
3 3 3 4 6 6 1 3 5 4 3 2 2 3 6 7 5 4 3 6 8 8 8 7 9 9 9 9 10 11 12 13 13 14 15 16 17 18 19 20 21 22 22 23 24 25 25 26 27
2 2 5 5 5 2 4 4 6 5 6 6 4 3 4 3 1 6 5 7 10 10 9 6 10 9 9 9 9 10 11 12 13 13 14 15 16 17 18 19 19 20 21 22 23 24 24 25 26
3 5 5 5 4 4 4 4 6 4 6 4 3 1 3 4 5 8 6 11 10 10 9 7 11 9 9 9 9 9 10 11 12 13 14 14 15 16 17 17 18 19 20 21 22 22 23 24 25
4 6 6 5 2 3 3 2 6 8 4 3 5 2 2 2 7 7 8 13 11 9 8 7 11 10 9 8 8 8 9 10 11 12 13 14 14 15 16 16 17 18 19 20 21 21 22 23 24
5 5 6 3 2 3 3 3 9 8 7 5 6 5 4 2 5 9 10 12 10 9 8 7 11 9 8 8 8 8 8 9 10 11 12 13 14 14 15 16 16 17 18 19 20 21 22 23 23
5 5 4 2 4 3 2 6 8 6 5 5 7 5 5 3 8 10 10 11 13 11 9 8 10 9 8 8 8 8 8 9 10 11 12 12 13 13 14 15 15 16 17 18 19 20 21 22 23
5 5 3 4 3 4 4 7 6 7 6 8 8 6 3 5 8 10 9 11 11 12 12 10 10 9 8 7 8 7 8 9 9 10 11 12 12 13 13 14 15 15 16 17 18 19 20 21 22
6 6 4 3 5 7 6 8 5 9 7 4 9 8 6 8 9 8 7 7 7 9 11 11 10 10 9 8 8 8 8 8 8 9 10 11 11 12 13 13 14 14 15 16 18 18 19 20 20
4 5 3 7 8 6 6 7 4 3 6 4 5 5 1 13 13 10 6 5 5 6 7 11 11 10 10 9 8 8 8 8 8 9 9 10 11 11 12 12 13 14 15 16 17 17 17 17 18
5 3 7 5 6 5 7 8 8 5 4 6 6 4 6 15 16 15 12 12 11 9 7 10 12 12 11 9 10 9 9 9 9 9 9 9 10 9 9 11 12 13 13 14 15 15 14 14 14
3 4 2 1 2 3 7 6 7 8 10 12 11 10 11 15 18 18 16 14 12 10 9 10 13 13 13 11 10 10 9 9 9 9 8 8 8 8 8 9 10 10 10 11 12 12 12 12 12
3 0 1 3 1 4 6 6 6 10 12 7 10 12 14 21 23 22 20 15 11 10 10 9 15 14 14 13 11 11 10 10 9 9 9 8 6 5 5 6 6 7 7 8 9 9 9 10 11
1 1 2 2 1 2 4 5 6 10 11 3 7 13 18 22 22 19 15 13 12 13 12 11 15 15 15 14 12 11 11 11 11 10 10 8 7 5 3 2 2 3 4 5 6 7 8 9 10
1 1 3 2 0 2 4 5 5 13 6 7 10 14 17 21 21 16 15 16 17 15 15 12 13 17 16 14 13 13 13 12 12 12 11 10 8 6 4 2 1 2 4 5 6 7 8 9 9
2 3 5 3 3 1 1 9 11 10 6 9 11 12 15 17 17 21 21 20 18 15 14 14 14 17 16 15 15 14 14 14 13 13 13 11 10 8 6 4 4 4 5 6 7 7 7 7 8
2 4 5 4 5 2 3 13 12 6 10 12 12 12 13 15 16 18 17 16 15 14 15 15 15 15 15 15 15 15 15 14 14 14 14 13 12 10 8 6 6 6 6 6 6 6 3 4 5
4 4 5 7 5 4 6 13 10 5 9 13 12 12 14 14 15 16 16 17 16 17 17 16 14 14 15 15 15 15 14 14 15 15 14 14 13 12 10 9 8 7 6 6 6 3 3 4 6
5 5 6 8 4 6 8 18 19 8 10 14 13 12 14 17 22 17 16 15 15 16 16 17 15 13 13 12 9 8 8 11 13 14 15 15 14 14 12 10 10 8 6 5 4 4 4 5 5
3 5 9 9 5 7 13 22 26 15 12 17 17 15 17 20 16 11 14 14 14 15 17 18 17 14 11 6 6 5 6 6 7 14 16 16 16 15 13 10 9 9 6 5 5 3 5 4 3
5 6 9 8 3 6 10 19 22 15 13 16 17 18 19 16 11 12 14 16 19 20 20 19 20 18 16 12 7 4 4 4 6 12 15 17 16 16 13 13 10 9 6 5 5 4 3 3 2
6 7 7 7 6 4 8 13 10 8 5 7 10 12 12 17 17 14 15 18 19 21 23 21 21 20 18 13 6 4 3 2 4 6 7 15 17 17 16 14 12 11 8 6 6 6 5 4 3
7 7 6 5 5 6 4 9 13 7 9 9 11 12 14 15 14 14 15 17 21 24 20 21 21 20 18 16 14 12 11 10 10 7 8 12 17 17 17 15 14 12 10 7 7 6 6 5 5
7 1 1 2 3 5 3 5 12 7 9 10 9 11 14 13 14 16 18 20 20 18 18 19 18 20 19 19 19 17 14 10 6 6 8 9 11 16 17 16 14 12 10 9 8 6 7 6 6
2 3 3 5 3 4 5 6 10 7 8 8 7 7 9 10 12 14 13 12 13 14 16 17 19 21 19 21 20 20 19 14 10 10 10 9 7 9 14 15 15 14 11 10 10 9 9 8 8
3 4 5 6 4 6 3 5 12 13 9 9 11 12 9 7 9 11 12 13 15 16 18 19 21 22 21 22 22 22 20 18 17 15 13 11 9 8 11 13 12 11 13 13 12 8 9 9 9
3 5 4 4 6 7 4 8 11 11 10 10 11 11 11 10 9 11 12 13 14 16 17 19 22 23 22 23 23 20 18 15 14 15 12 13 11 11 10 13 13 14 14 13 11 8 9 8 10
4 4 4 3 4 5 8 9 13 9 8 7 9 10 12 11 10 10 10 11 12 15 18 21 22 22 22 23 21 20 19 18 16 14 13 10 10 9 11 12 12 12 13 12 10 9 10 9 10
2 6 5 2 3 6 8 7 6 10 10 10 10 10 11 10 10 10 10 10 11 12 13 15 19 22 21 20 20 18 19 19 16 14 15 14 13 11 10 11 11 10 11 11 9 9 10 10 11
5 4 4 3 3 4 6 9 8 10 10 11 13 12 12 12 12 11 9 8 9 9 11 14 17 18 18 20 20 19 18 18 16 16 16 15 12 13 12 12 11 11 11 10 10 11 10 11 12
7 7 8 4 6 6 5 11 11 11 10 10 12 13 12 12 12 11 10 9 8 10 11 14 15 18 19 18 18 19 17 16 17 18 16 14 14 13 13 12 12 12 12 11 11 12 12 12 13
Wind_Direction
74 72 67 56 56 54 129 200 164 154 164 114 98 117 156 164 171 181 133 167 145 129 109 106 112 102 90 79 71 63 56 51 47 44 41 39 37 35 33 31 29 28 27 26 25 24 23 22 20
92 62 54 59 83 56 267 198 183 192 155 132 102 106 122 168 133 127 155 178 148 127 116 115 121 110 98 87 76 68 61 56 50 47 43 40 38 36 33 31 29 28 26 25 24 23 22 21 19
87 51 76 72 100 180 235 193 173 110 134 138 118 84 191 190 173 175 188 167 144 126 123 134 127 117 105 93 82 73 66 60 55 51 46 43 40 38 34 31 30 28 26 25 24 23 22 20 18
78 47 54 72 130 218 252 197 149 131 155 145 147 176 236 196 178 183 158 155 136 124 123 141 133 124 113 102 91 81 72 65 60 55 50 45 42 40 34 32 31 28 26 24 23 22 21 19 17
58 74 60 47 262 262 249 185 154 160 181 177 170 189 225 198 152 145 149 154 142 130 118 127 134 129 121 110 100 90 80 72 65 60 54 47 44 41 36 32 31 28 26 24 22 21 20 18 15
57 68 84 261 260 276 229 169 158 171 171 171 177 190 226 160 152 158 158 159 150 136 120 114 135 130 124 117 108 97 87 79 71 66 59 51 46 42 37 32 32 29 27 24 23 21 20 17 15
104 102 166 208 232 264 211 167 177 175 189 202 180 183 227 189 186 159 154 154 150 141 130 118 117 120 121 120 116 105 95 87 78 72 65 56 49 43 38 32 31 29 27 25 23 21 19 17 14
115 103 109 191 215 248 195 169 194 171 202 168 162 182 226 197 164 140 136 142 148 147 142 136 131 128 119 111 120 113 104 96 87 80 74 65 58 48 39 32 31 30 28 25 24 21 19 17 12
93 84 209 218 205 236 172 174 180 150 135 179 214 218 193 141 139 137 143 161 172 169 163 154 147 143 137 123 117 117 112 107 99 92 87 83 76 61 43 34 33 31 29 26 24 21 19 17 11
81 164 233 213 196 208 180 188 176 150 184 223 240 202 122 144 161 171 179 183 186 186 186 176 165 159 153 143 136 130 126 123 119 115 110 99 86 71 55 42 37 33 31 27 23 20 18 12 4
73 196 246 303 241 183 174 194 178 173 224 216 209 187 155 165 178 187 191 189 190 186 184 182 178 170 163 155 151 148 146 143 140 138 132 119 99 80 65 53 44 38 31 26 18 15 8 358 349
93 5 319 311 254 170 185 180 195 212 226 211 200 165 168 178 189 195 196 192 186 183 191 183 182 177 174 168 165 165 163 163 163 161 156 141 121 99 76 58 41 31 21 11 3 354 346 340 334
107 293 339 337 102 180 170 201 232 243 237 206 153 161 180 189 197 201 198 191 187 192 192 187 184 183 179 175 174 175 177 178 177 174 172 163 149 141 119 82 37 11 359 346 335 329 324 321 319
137 306 301 305 164 178 204 248 241 256 214 186 178 187 194 197 199 195 196 196 197 198 195 188 188 188 182 181 182 182 184 184 183 184 183 179 171 167 169 182 252 299 310 312 307 303 301 302 301
119 343 310 240 207 217 243 282 234 239 160 203 210 207 206 208 202 203 202 201 200 197 192 189 191 190 187 187 188 187 187 186 187 191 191 190 187 186 190 203 232 259 279 292 296 295 292 297 301
41 10 316 269 194 171 176 267 263 211 191 224 223 218 217 217 212 212 206 203 198 193 192 193 193 190 191 190 189 186 188 189 193 195 195 197 197 197 199 209 231 249 262 273 279 270 281 283 287
22 320 286 295 199 173 208 256 271 170 203 235 233 223 223 226 224 218 209 204 198 196 193 193 193 189 192 191 189 188 189 193 196 197 199 201 202 204 205 214 230 240 246 256 269 269 256 277 288
274 270 270 269 234 190 231 256 266 222 213 238 240 231 226 229 230 218 208 202 198 197 196 196 196 192 185 180 177 183 194 202 201 201 203 204 205 207 209 217 228 231 232 243 250 263 261 259 274
241 249 267 266 231 203 246 262 271 261 226 240 240 233 232 235 235 208 200 198 196 197 199 199 197 192 181 174 178 184 205 203 203 207 207 206 207 208 209 214 221 222 220 230 239 251 271 269 267
231 266 275 286 234 218 277 277 274 263 239 236 236 233 233 236 230 209 199 198 201 202 203 202 202 196 193 193 180 176 173 190 201 204 206 207 207 208 211 212 216 220 221 231 235 227 251 262 270
245 234 255 276 318 280 309 297 285 289 255 252 238 234 231 229 230 216 205 205 205 207 206 205 204 200 197 189 167 148 138 148 182 203 207 209 208 210 212 213 216 219 215 224 230 224 225 248 254
265 249 239 279 320 299 357 304 293 288 295 265 246 233 234 231 228 220 210 209 210 213 207 206 203 202 197 189 189 188 195 202 203 196 198 202 207 211 215 217 218 220 219 221 231 226 219 225 251
232 311 275 290 251 299 272 237 286 316 295 282 262 239 236 230 224 224 218 217 216 210 205 206 204 204 199 197 199 201 209 210 187 184 193 201 209 214 217 218 219 220 222 224 227 230 227 222 235
140 44 52 54 71 294 241 200 284 270 251 286 299 276 251 238 228 231 227 217 215 204 204 203 204 207 202 201 203 206 209 203 192 196 201 206 209 214 218 219 219 222 223 226 229 230 232 233 236
86 55 347 339 344 264 209 219 255 259 250 256 280 294 295 265 237 233 226 217 215 206 204 203 205 210 205 204 207 209 211 206 206 205 206 204 207 212 215 216 216 220 225 229 230 228 234 234 236
181 149 176 265 274 293 287 243 259 269 276 264 265 276 287 273 250 239 232 223 218 211 205 203 207 212 206 207 210 211 210 209 213 210 205 206 210 212 208 211 217 221 225 230 229 230 237 237 239
160 196 172 168 284 282 278 286 297 297 304 293 283 284 280 276 267 254 246 230 222 215 209 206 208 212 209 209 210 210 210 210 211 208 207 208 210 209 209 212 217 223 226 228 227 235 238 239 242
162 152 107 144 278 286 291 279 261 297 308 320 318 304 292 289 282 271 257 243 232 223 216 208 210 213 212 209 210 212 211 212 210 206 207 209 209 208 205 210 215 221 225 227 226 236 241 241 246
144 160 165 174 198 226 281 273 239 249 275 296 299 297 291 289 284 277 268 253 238 225 213 211 213 215 213 211 210 212 211 209 208 210 211 210 208 207 211 213 216 222 226 226 229 236 239 243 250
184 196 165 190 242 211 241 271 263 259 271 275 284 291 291 285 281 277 272 265 247 232 221 218 216 216 216 212 209 212 210 206 208 213 211 207 208 208 211 213 217 223 227 227 229 238 243 243 250
Height
1545 1546 1547 1549 1553 1567 1571 1570 1570 1572 1573 1573 1574 1575 1576 1578 1582 1586 1581 1581 1584 1586 1588 1589 1590 1591 1591 1591 1590 1589 1589 1587 1586 1585 1583 1582 1580 1579 1577 1575 1573 1572 1570 1568 1566 1564 1561 1559 1557
1546 1547 1549 1550 1561 1573 1572 1568 1571 1570 1571 1572 1573 1574 1574 1574 1576 1577 1577 1579 1582 1585 1587 1588 1589 1590 1590 1590 1589 1589 1588 1587 1585 1584 1582 1581 1579 1578 1576 1575 1573 1571 1569 1567 1565 1563 1561 1558 1556
1547 1548 1550 1553 1564 1571 1566 1567 1568 1570 1571 1572 1572 1573 1573 1572 1573 1574 1576 1578 1581 1584 1586 1587 1588 1588 1589 1589 1588 1588 1587 1586 1584 1583 1581 1580 1578 1577 1575 1574 1572 1570 1568 1567 1565 1562 1560 1558 1556
1548 1550 1551 1559 1565 1566 1566 1566 1567 1569 1571 1571 1572 1572 1571 1572 1572 1573 1575 1577 1580 1582 1584 1586 1587 1587 1588 1587 1587 1587 1586 1584 1583 1581 1580 1578 1577 1575 1574 1572 1571 1569 1567 1565 1564 1562 1559 1557 1555
1549 1550 1558 1567 1566 1566 1565 1565 1566 1567 1569 1570 1570 1570 1569 1570 1570 1572 1574 1576 1579 1581 1583 1584 1585 1586 1586 1586 1586 1585 1584 1583 1581 1580 1578 1577 1576 1574 1572 1571 1569 1568 1566 1564 1562 1560 1558 1556 1554
1550 1551 1565 1569 1565 1564 1564 1563 1565 1566 1567 1568 1569 1568 1566 1567 1568 1571 1573 1576 1578 1580 1582 1583 1584 1584 1584 1584 1584 1583 1582 1581 1580 1578 1577 1575 1574 1572 1571 1569 1568 1566 1564 1563 1561 1559 1557 1555 1553
1551 1556 1563 1563 1566 1564 1562 1562 1563 1563 1565 1565 1565 1566 1564 1564 1567 1570 1572 1574 1576 1578 1580 1581 1582 1582 1583 1583 1582 1582 1581 1580 1578 1577 1575 1574 1573 1571 1569 1568 1566 1564 1563 1561 1559 1558 1556 1554 1552
1550 1556 1565 1567 1567 1562 1559 1560 1560 1561 1562 1563 1564 1562 1561 1562 1564 1567 1570 1572 1574 1576 1577 1579 1580 1581 1581 1581 1581 1580 1579 1578 1577 1575 1574 1573 1571 1570 1568 1566 1565 1563 1561 1560 1558 1556 1554 1552 1550
1550 1559 1564 1563 1563 1557 1555 1557 1558 1559 1559 1559 1559 1559 1559 1560 1561 1564 1566 1568 1570 1572 1574 1576 1577 1578 1579 1579 1579 1578 1577 1576 1575 1573 1572 1571 1569 1568 1566 1564 1563 1561 1559 1558 1556 1554 1552 1550 1548
1550 1559 1556 1553 1553 1552 1553 1554 1555 1557 1557 1556 1555 1555 1556 1557 1558 1559 1560 1562 1565 1567 1570 1573 1574 1575 1576 1576 1576 1576 1575 1574 1573 1571 1570 1568 1567 1565 1564 1562 1561 1559 1557 1555 1553 1551 1549 1547 1545
1549 1553 1552 1551 1551 1551 1552 1553 1553 1554 1552 1549 1549 1550 1552 1553 1554 1555 1557 1559 1562 1565 1567 1569 1571 1572 1573 1573 1573 1573 1572 1571 1570 1569 1567 1566 1564 1563 1561 1560 1558 1556 1554 1552 1550 1548 1545 1543 1541
1551 1551 1551 1550 1550 1550 1550 1550 1551 1548 1543 1545 1546 1547 1548 1549 1549 1550 1552 1555 1558 1561 1563 1565 1567 1568 1569 1570 1570 1570 1569 1568 1567 1566 1564 1563 1562 1560 1558 1557 1555 1553 1551 1549 1546 1544 1541 1539 1536
1551 1551 1550 1549 1549 1548 1549 1548 1547 1541 1541 1543 1543 1543 1543 1544 1545 1548 1550 1552 1554 1556 1559 1561 1563 1564 1565 1566 1566 1566 1565 1565 1564 1562 1561 1560 1558 1557 1555 1553 1551 1549 1547 1545 1542 1540 1537 1535 1532
1551 1550 1549 1548 1548 1547 1547 1546 1545 1533 1537 1537 1538 1538 1539 1540 1541 1543 1544 1546 1548 1551 1554 1557 1558 1560 1561 1561 1562 1562 1561 1561 1560 1559 1558 1556 1555 1553 1551 1549 1547 1545 1543 1541 1538 1536 1533 1530 1528
1551 1551 1549 1547 1547 1547 1547 1544 1536 1528 1532 1532 1532 1532 1533 1535 1536 1537 1538 1540 1543 1546 1549 1551 1553 1555 1556 1557 1557 1557 1557 1557 1556 1555 1553 1552 1551 1549 1547 1545 1543 1541 1539 1536 1534 1532 1529 1526 1523
1552 1554 1553 1546 1546 1546 1550 1543 1524 1526 1526 1525 1526 1526 1527 1528 1529 1531 1533 1536 1539 1541 1544 1546 1548 1549 1551 1552 1553 1553 1552 1552 1551 1550 1549 1548 1546 1545 1543 1541 1539 1537 1535 1532 1530 1527 1524 1522 1519
1556 1558 1554 1548 1545 1546 1548 1538 1522 1522 1521 1519 1519 1519 1520 1521 1523 1524 1527 1529 1532 1535 1538 1540 1542 1543 1545 1547 1547 1547 1547 1547 1546 1545 1544 1543 1542 1540 1538 1537 1535 1532 1530 1528 1526 1523 1520 1517 1514
1555 1555 1554 1551 1543 1546 1546 1534 1517 1518 1517 1514 1512 1513 1513 1513 1514 1518 1521 1524 1526 1529 1531 1534 1535 1537 1539 1541 1541 1541 1541 1541 1540 1540 1539 1538 1536 1535 1533 1532 1530 1528 1526 1524 1521 1519 1516 1512 1509
1550 1552 1553 1547 1540 1544 1540 1527 1511 1507 1509 1505 1503 1503 1504 1504 1508 1512 1514 1517 1519 1521 1523 1525 1528 1530 1532 1532 1533 1533 1534 1534 1534 1534 1533 1532 1531 1529 1528 1527 1525 1523 1521 1519 1517 1514 1511 1508 1504
1550 1552 1551 1544 1540 1542 1536 1522 1504 1497 1495 1493 1492 1492 1494 1496 1500 1503 1507 1509 1511 1512 1515 1517 1519 1521 1523 1525 1527 1527 1528 1528 1528 1527 1526 1526 1525 1524 1522 1521 1520 1518 1516 1514 1512 1509 1506 1504 1501
1548 1550 1547 1545 1540 1538 1538 1518 1501 1491 1488 1486 1484 1484 1486 1488 1491 1496 1499 1501 1503 1504 1505 1508 1510 1513 1515 1518 1520 1520 1520 1520 1520 1520 1520 1519 1518 1517 1516 1515 1514 1512 1511 1509 1507 1504 1502 1499 1497
1550 1542 1543 1542 1545 1547 1541 1535 1499 1493 1488 1481 1478 1479 1479 1482 1485 1489 1492 1493 1495 1496 1499 1501 1503 1505 1507 1509 1510 1510 1510 1511 1512 1513 1513 1513 1512 1511 1510 1509 1508 1506 1505 1503 1501 1499 1497 1494 1492
1543 1540 1541 1542 1545 1549 1544 1543 1509 1497 1488 1477 1473 1473 1474 1477 1480 1483 1485 1487 1489 1491 1492 1494 1495 1497 1498 1499 1500 1502 1502 1503 1505 1505 1505 1505 1504 1504 1503 1502 1501 1499 1498 1497 1495 1493 1491 1489 1487
1540 1542 1545 1550 1552 1553 1542 1547 1520 1498 1486 1478 1472 1471 1472 1474 1477 1479 1481 1482 1483 1485 1485 1486 1487 1488 1489 1490 1491 1492 1493 1495 1496 1496 1497 1497 1497 1496 1495 1495 1494 1493 1491 1490 1489 1487 1485 1483 1481
1542 1548 1555 1550 1552 1546 1538 1541 1516 1485 1480 1478 1474 1471 1471 1472 1473 1475 1476 1477 1477 1478 1478 1479 1479 1479 1480 1480 1481 1482 1483 1485 1486 1488 1489 1489 1488 1488 1488 1487 1486 1485 1484 1483 1482 1480 1478 1476 1474
1543 1547 1556 1557 1555 1547 1537 1533 1501 1479 1476 1474 1472 1470 1469 1469 1470 1471 1471 1472 1472 1472 1472 1471 1471 1471 1471 1470 1471 1472 1474 1475 1477 1478 1479 1480 1480 1480 1480 1479 1479 1478 1477 1476 1474 1472 1471 1469 1467
1543 1548 1548 1556 1555 1556 1540 1524 1498 1475 1472 1470 1468 1467 1466 1466 1467 1467 1467 1467 1466 1466 1465 1464 1463 1463 1462 1462 1462 1463 1464 1465 1467 1469 1470 1471 1471 1472 1472 1471 1471 1470 1469 1468 1467 1464 1463 1461 1459
1540 1546 1554 1555 1556 1552 1539 1526 1507 1482 1473 1470 1468 1466 1464 1464 1464 1463 1463 1462 1461 1459 1458 1457 1455 1454 1454 1453 1453 1453 1454 1455 1457 1459 1460 1461 1462 1463 1463 1463 1463 1462 1461 1460 1459 1457 1455 1453 1451
1544 1546 1547 1553 1556 1555 1547 1520 1489 1482 1475 1473 1469 1465 1463 1462 1460 1459 1457 1456 1455 1453 1451 1449 1447 1446 1445 1444 1443 1443 1444 1446 1447 1448 1450 1452 1453 1453 1454 1454 1454 1454 1453 1452 1450 1448 1447 1445 1443
1539 1540 1546 1550 1547 1553 1552 1514 1479 1476 1472 1470 1467 1464 1461 1459 1457 1454 1452 1450 1448 1445 1443 1441 1439 1437 1436 1435 1434 1434 1434 1435 1436 1437 1440 1442 1443 1444 1445 1445 1445 1445 1444 1444 1442 1440 1439 1437 1434